Content
SEND FEEDBACK

Daily
Averages
Monthly
Summary
United States of America

KANAB, UTAH


Home > North America > United States > Utah
Elevation: 4530 feet     Latitude: 37 06N     Longitude: 111 46W

WEATHER
 
SELECT A DAY
Number of Records: 194,940;   Date Range: 1/1/95 - 9/20/14
 
SHARE

PRINT THIS DATA

[ ← Previous Day ]
WEATHER ALMANAC - JANUARY 1, 2013
[ Next Day → ]
[ °C ]   °F
Weather ElementAverageHighLow
Temperature28.7 °F36 °F (2:53 pm)23 °F (7:53 am)
Dewpoint10.6 °F12.9 °F (3:53 pm)8.1 °F (5:53 am)
Humidity47.3 %55 % (3:53 am)35 % (1:53 pm)
Barometer30.28 in30.36 in (11:53 pm)30.18 in (1:53 am)
Wind Speed1.8 mph9.2 mph (5:53 am)
Weather ElementAverage
Visibility9.3 mi
Wind DirectionENE (74.8 °)

Weather ElementTotal
Precipitation---
Heating Degree Days35.5 (Base 65)
Averaged from 23 records on January 1, 2013
WEATHER CONDITIONS BREAKOUT
WIND DIRECTION BREAKOUT
WEATHER BY HOUR - JANUARY 1, 2013
[ °C ]   °F
Local TimeTemperatureDewpointHumidityBarometerVisibilityWind DirectionWind SpeedGust SpeedPrecipitationEventsConditions
1:53 AM27.0 °F12.0 °F53 %30.18 in10.0 miCalmClear
2:53 AM26.1 °F10.0 °F51 %30.19 in10.0 miCalmClear
3:53 AM25.0 °F10.9 °F55 %30.20 in10.0 miCalmClear
4:53 AM24.1 °F10.0 °F55 %30.22 in10.0 miCalmClear
5:53 AM25.0 °F8.1 °F49 %30.23 in10.0 miWNW (300°)9.2 mphClear
6:53 AM24.1 °F8.1 °F51 %30.27 in10.0 miCalmClear
7:53 AM23.0 °F9.0 °F55 %30.28 in10.0 miCalmClear
8:53 AM25.0 °F10.0 °F53 %30.29 in10.0 miSE (140°)4.6 mphClear
9:53 AM27.0 °F8.1 °F45 %30.31 in10.0 miWNW (290°)3.5 mphClear
10:53 AM28.9 °F9.0 °F43 %30.33 in10.0 miVariable3.5 mphClear
11:53 AM32.0 °F9.0 °F38 %30.31 in10.0 miCalmClear
12:53 PM34.0 °F10.0 °F37 %30.29 in10.0 miCalmClear
1:53 PM35.1 °F10.0 °F35 %30.27 in10.0 miCalmClear
2:53 PM36.0 °F12.0 °F37 %30.27 in10.0 miNorth (360°)3.5 mphClear
3:53 PM36.0 °F12.9 °F39 %30.29 in10.0 miNorth (10°)5.8 mphClear
4:53 PM35.1 °F12.0 °F39 %30.30 in10.0 miCalmClear
5:53 PM32.0 °F12.0 °F44 %30.31 in8.0 miCalmClear
6:53 PM30.0 °F12.9 °F49 %30.33 in5.0 miCalmHaze
7:53 PM28.9 °F12.9 °F51 %30.32 in8.0 miSouth (170°)3.5 mphClear
8:53 PM28.0 °F12.0 °F51 %30.33 in10.0 miSouth (180°)3.5 mphClear
9:53 PM26.1 °F12.0 °F55 %30.33 in5.0 miWest (270°)3.5 mphHaze
10:53 PM26.1 °F10.9 °F53 %30.34 in9.0 miCalmClear
11:53 PM26.1 °F10.0 °F51 %30.36 in10.0 miCalmClear
Hourly data recorded from KPGA, located miles away from Kanab, Utah







STORIES FROM OUR PARTNERS